Starlink 3632

operational
NORAD ID: 51784 Int'l Des: 2022-017 Owner: SPXS Country: US Constellation: starlink
LEOCIRCULAR

About Starlink 3632

Description loading...

Live Position

Loading 3D Globe...

Upcoming Passes

Altitude History

Altitude vs Time

uPlot chart will show altitude changes over time

Two-Line Element Set

1 51784U 22017S 26036.73636909 .00000100 00000-0 24383-4 0 9992
2 51784 53.2174 132.5651 0001269 87.9222 272.1915 15.08842789217458
Epoch: Feb 5, 2026 • Age: 8 hours

Current Status

Altitude 544.6 km
Velocity 7.59 km/s
Sub-Earth Point -16.94°S, 41.12°W
Launch Date Feb 25, 2022
Age 3.9 years
Type internet

Technical Details

Classification Payload
Mass 297.00 kg
Dry Mass 275.00 kg
Total Mass 297.00 kg
Length 0.20 m
Diameter 2.80 m
Span 9.00 m
Shape Box + pan
Manufacturer SPXS
Bus Type Starlink
Phase Status In Orbit
Owner/State SPXS/US

Large Constellations

Loading constellations...